Regional Weather Roundup
Issued by NWS

Home | Current Version | Previous Version | Graphics & Text | Print | Product List | Glossary Off
Versions: 1 2 3 4 5 6 7 8 9 10 11 12 13 14 15 16 17 18 19 20 21 22 23 24 25 26 27 28 29 30 31 32 33 34 35 36 37 38 39 40 41 42 43 44 45 46 47 48 49 50

651
ASUS43 KMPX 101201
RWRMN
WEATHER ROUNDUP FOR MINNESOTA
NATIONAL WEATHER SERVICE TWIN CITIES/CHANHASSEN MN
600 AM CST WED FEB 10 2016


NOTE: "FAIR" INDICATES FEW OR NO CLOUDS BELOW 12,000 FEET WITH NO
SIGNIFICANT WEATHER AND/OR OBSTRUCTIONS TO VISIBILITY. N/A MEANS
CURRENT SKY AND/OR WEATHER CONDITIONS ARE NOT AVAILABLE.

MNZ060>063-068>070-101300-
   Twin Cities Metro

CITY           SKY/WX    TMP DP  RH WIND       PRES   REMARKS
TWIN CITIES    CLOUDY     4  -5  66 N6        30.12S WCI  -7
6HR MIN TEMP:   4; 6HR MAX TEMP:   8;

ST PAUL        CLOUDY     3  -5  69 NE7       30.14S WCI  -9
CRYSTAL        CLOUDY     4  -5  66 N8        30.11S WCI  -9
BLAINE         CLOUDY     3  -2  78 N3        30.11S
LAKEVILLE      PTCLDY     1  -4  78 CALM      30.10S
EDEN PRAIRIE   CLOUDY     4  -4  69 CALM      30.11S
6HR MIN TEMP:   3; 6HR MAX TEMP:   7;

SOUTH ST PAUL  CLOUDY     4  -4  67 N6        30.12S WCI  -7
LAKE ELMO      FAIR       1  -4  78 N3        30.12S
$$
MNZ001>005-007-008-013>017-022>024-027-028-101300-
   Northwest Minnesota

CITY           SKY/WX    TMP DP  RH WIND       PRES   REMARKS
BEMIDJI        CLOUDY    -8 -12  83 CALM      30.07S
HALLOCK        CLOUDY     1  -6  71 SE8       30.15R WCI -12
ROSEAU         CLOUDY    -9 -15  77 E3        30.14R
WARROAD        CLOUDY   -13 -18  77 CALM      30.14R
THIEF RVR FALL CLOUDY     0  -6  78 E9        30.11F WCI -16
CROOKSTON      CLOUDY     3  -2  78 SE6       30.14R WCI  -8
FOSSTON          N/A     -4  -9  77 CALM      30.09S
DETROIT LAKES  CLOUDY     3   0  85 SE6       30.07S WCI  -8
MOORHEAD       CLOUDY     5   0  78 SE3       30.10F
PARK RAPIDS    CLOUDY    -2  -8  76 NE3       30.05S
MAHNOMEN       CLOUDY     0  -4  80 SE3       30.08S
$$
MNZ006-009>011-018-025>026-101300-
   North Central Minnesota

CITY           SKY/WX    TMP DP  RH WIND       PRES   REMARKS
BAUDETTE       PTCLDY   -21 -29  66 CALM      30.11S
FLAG ISLAND    CLOUDY   -13 -18  77 E3        30.14R
INTL FALLS     CLOUDY   -14 -19  79 NE7       30.12F WCI -30
6HR MIN TEMP: -19; 6HR MAX TEMP:  -6;

WASKISH        CLOUDY   -17 -20  83 CALM      30.10F
LONGVILLE      CLOUDY    -8 -11  84 CALM      30.08S
GRAND RAPIDS   CLOUDY   -11 -17  77 N7        30.06F WCI -26
CRANE LAKE     CLOUDY   -26 -31  75 CALM      30.16R
ORR            CLOUDY   -20 -27  69 CALM      30.07S
COOK           PTCLDY   -26 -29  83 CALM      30.09F
WALKER         FAIR      -6 -10  81 NE3       30.07S
$$
MNZ012-019>021-037-101300-
   Northeast Minnesota

CITY           SKY/WX    TMP DP  RH WIND       PRES   REMARKS
DULUTH         CLOUDY   -10 -15  78 NW8       30.04R WCI -26
6HR MIN TEMP: -10; 6HR MAX TEMP:  -3; 6HR PCP: TRACE;

ELY            CLOUDY   -11 -17  77 CALM      30.08R
HIBBING        PTCLDY   -15 -19  82 N6        30.08R WCI -29
EVELETH        PTCLDY    -9 -15  77 CALM      30.09R
DULUTH HARBOR  CLOUDY     1  -4  78 N13G20    30.14R WCI -16
TWO HARBORS    CLOUDY    -9 -17  70 CALM      30.05S
SILVER BAY     CLEAR    -15 -18  84 CALM      30.06R
GRAND MARAIS     N/A     -8 -18  61 N20G33    30.08R WCI -32
G MARAIS ARPRT CLOUDY   -17 -24  70 NW10      29.96R WCI -37
$$
MNZ029>031-032-039>041-046>048-054>057-064-101300-
   West Central Minnesota

CITY           SKY/WX    TMP DP  RH WIND       PRES   REMARKS
FERGUS FALLS   CLOUDY     5  -2  72 SE7       30.12F WCI  -7
WHEATON        LGT SNOW   9   5  85 E10       30.10S WCI  -6
MORRIS         LGT SNOW   7   1  78 SE8       30.08S WCI  -6
ALEXANDRIA     CLOUDY     3  -4  72 E6        30.06F WCI  -8
ELBOW LAKE     CLOUDY     5  -1  75 SE7       30.08F WCI  -7
WADENA         CLOUDY     0  -6  78 E3        30.07S
GLENWOOD       CLOUDY     3  -2  78 E5        30.07F WCI  -6
APPLETON       LGT SNOW   9   3  78 E8        30.10S WCI  -4
BENSON         LGT SNOW   7   0  72 CALM      30.09F
ORTONVILLE     LGT SNOW   9   3  78 E9        30.08S WCI  -5
MADISON        LGT SNOW  10   7  85 E9        30.09S WCI  -2
WILLMAR        CLOUDY     7   0  72 E6        30.10F WCI  -3
$$
MNZ033>034-036-042>043-049>051-058-059-101300-
   Central Minnesota

CITY           SKY/WX    TMP DP  RH WIND       PRES   REMARKS
ST CLOUD       CLOUDY     2  -5  72 N3        30.10S
6HR MIN TEMP:   2; 6HR MAX TEMP:   4;

SAUK CENTRE    PTSUNNY    2  -5  73 NE5       30.09S WCI  -8
PAYNESVILLE    CLOUDY     3  -3  74 CALM      30.10S
AITKIN         CLOUDY    -6 -13  71 CALM      30.07F
PINE RIVER     PTCLDY    -4  -9  77 CALM      30.10S
BRAINERD       CLOUDY    -3  -7  82 N5        30.09S WCI -13
STAPLES        CLOUDY    -4  -8  84 CALM      30.07F
LONG PRAIRIE   MOCLDY     1  -6  71 N3        30.08S
LITTLE FALLS   CLOUDY     0  -8  71 CALM      30.11S
LITCHFIELD     CLOUDY     5  -2  72 CALM      30.11R
BUFFALO        MOCLDY     4  -4  69 N3        30.12S
MAPLE LAKE     CLOUDY     4  -1  78 CALM      30.11S
$$
MNZ037-044-045-052-053-101300-
   East Central Minnesota

CITY           SKY/WX    TMP DP  RH WIND       PRES   REMARKS
PRINCETON      CLOUDY     3  -4  72 N3        30.10S
MORA           CLOUDY    -4  -8  84 CALM      30.12F
CAMBRIDGE      PTCLDY     1  -8  66 CALM      30.10S
RUSH CITY      PTCLDY    -2  -7  80 CALM      30.13S
MOOSE LAKE     CLOUDY    -9 -15  77 NW5       30.09S WCI -21
HINCKLEY       FAIR      -4  -8  84 NW5       30.11S WCI -15
CLOQUET        CLOUDY   -11 -17  77 N6        30.06S WCI -25
MCGREGOR       PTCLDY    -6 -11  77 CALM      30.09F
$$
MNZ071>073-080-081-089-090-097-098-101300-
   Southwest Minnesota

CITY           SKY/WX    TMP DP  RH WIND       PRES   REMARKS
MONTEVIDEO     LGT SNOW   7   3  85 SE8       30.11F WCI  -6
GRANITE FALLS  LGT SNOW  10   5  80 E5        30.11F WCI   1
CANBY          LGT SNOW  14  10  87 SE9       30.07F WCI   1
MARSHALL       LGT SNOW  10   6  84 E9        30.07F FOG     WCI  -3
REDWOOD FALLS  LGT SNOW   7   0  73 E3        30.11S
OLIVIA         CLOUDY    10   1  67 CALM      30.11S
PIPESTONE      LGT SNOW  16   7  67 SE9       30.00F WCI   4
WINDOM         LGT SNOW   9   3  78 CALM      30.06F
WORTHINGTON    CLOUDY    12   7  79 E7        30.04F WCI   2
JACKSON        LGT SNOW  10   3  72 E6        30.06S WCI   1
TRACY          LGT SNOW  11   8  85 E7        30.06F WCI   0
SLAYTON        LGT SNOW  12  10  92 E8        30.03F WCI   0
$$
MNZ065>067-074>077-082>085-091>093-101300-
   South Central Minnesota

CITY           SKY/WX    TMP DP  RH WIND       PRES   REMARKS
MANKATO        CLOUDY     5   0  78 N3        30.10S
NEW ULM        CLOUDY     7  -2  66 CALM      30.11R
ST JAMES       CLOUDY     9   1  72 CALM      30.11S
FAIRMONT       CLOUDY     7   0  72 CALM      30.08S
GLENCOE        MOCLDY     6   0  75 CALM      30.11R
FARIBAULT        N/A      0  -6  78 CALM      30.09F
OWATONNA       CLOUDY     1  -4  78 CALM      30.08F
WASECA         CLOUDY     3   0  85 CALM      30.10F
ALBERT LEA     CLOUDY     3   0  85 CALM      30.07F
$$
MNZ078>079-086>088-094>096-101300-
   Southeast Minnesota

CITY           SKY/WX    TMP DP  RH WIND       PRES   REMARKS
ROCHESTER      CLOUDY    -1  -6  79 NW7       30.06R WCI -14
6HR MIN TEMP:  -2; 6HR MAX TEMP:   2;

RED WING       CLOUDY    -2  -9  71 CALM      30.11S
STANTON        PTCLDY    -1  -6  78 CALM      30.10S
DODGE CENTER   CLOUDY     1  -6  71 NW3       30.06R
WINONA         PTCLDY     3  -4  72 NW7       30.12S WCI  -9
AUSTIN         CLOUDY     0  -2  92 CALM      30.06F
PRESTON        CLOUDY    -1  -7  74 NW6       30.06S WCI -13
$$
ABBREVIATIONS USED IN REMARKS
   TC - TEMPERATURES IN CELSIUS
  WCI - WIND CHILL INDEX
   HX - HEAT INDEX
  VSB - VISIBILITY
$$




USA.gov is the U.S. government's official web portal to all federal, state and local government web resources and services.